[[{"header":{"parameterUnit":"m.s-1","parameterCategory":1,"la1":30.2991,"la2":30.254,"lo1":-89.0895,"lo2":-89.0444,"dy":0.0017,"dx":0.0017,"nx":28,"ny":28,"refTime":"2024-02-03T09:00:00:Z","depth":0,"parameterNumber":2,"parameterNumberName":"U-component_of_WINDS"},"data":[0,0,0,0,0,0,0,0,0,0,0,0,0,0,0,0,0,0,0,0,0,0,0,0,0,0,0,0,0,0,0,0,0,0,0,0,0,0,0,0,0,0,0,0,0,0,0,0,0,0,0,0,0,0,0,0,0,0,-5.8454,-5.8454,0,-5.8486,-5.8486,-5.8486,-5.8337,-5.8333,-5.8329,-5.8325,-5.8358,-5.8363,-5.8368,0,0,0,0,0,0,0,0,0,0,0,0,0,-5.8265,-5.8269,-5.8454,-5.8454,-5.8455,-5.8486,-5.8486,-5.8486,-5.8338,-5.8333,-5.8328,-5.8323,-5.8357,-5.8362,-5.8368,0,0,0,0,0,0,0,0,0,0,0,0,0,-5.8327,-5.8271,-5.8454,-5.8384,-5.8378,-5.8485,-5.8486,-5.8486,-5.8339,-5.8333,-5.8326,-5.832,-5.8355,-5.8362,-5.8369,-5.8545,0,0,-5.8392,-5.8395,0,0,0,0,0,0,0,0,-5.8324,-5.8334,-5.8394,-5.8389,-5.8383,-5.8401,-5.8431,-5.8506,-5.8341,-5.8354,-5.8324,-5.8317,-5.8378,-5.8383,-5.8403,-5.8546,-5.8548,-5.8392,-5.8397,-5.84,-5.8402,0,0,0,0,0,0,0,-5.832,-5.8332,-5.8466,-5.8395,-5.8388,-5.8352,-5.8353,-5.8445,-5.8402,-5.8352,-5.8342,-5.8347,-5.8373,-5.8396,-5.8403,-5.8548,-5.8392,-5.8399,-5.8403,-5.8406,-5.8836,-5.8843,0,0,0,0,0,0,-5.8324,-5.8329,-5.8465,-5.8467,-5.8337,-5.836,-5.8362,-5.8402,-5.8401,-5.8394,-5.8353,-5.834,-5.8387,-5.8394,-5.8403,-5.8608,-5.84,-5.8407,-5.8411,-5.8829,-5.8838,-5.8845,0,0,0,0,0,0,-5.8321,-5.8338,-5.8464,-5.8395,-5.8409,-5.837,-5.8416,-5.8406,-5.8428,-5.8401,-5.8393,-5.8384,-5.8382,-5.8393,-5.851,-5.8607,-5.841,-5.8417,-5.8821,-5.8832,-5.8842,-5.902,0,0,0,0,0,0,-5.8316,-5.8338,-5.8404,-5.8398,-5.8413,-5.8571,-5.8422,-5.8411,-5.8441,-5.8425,-5.8428,-5.8422,-5.8378,-5.85,-5.8518,-5.8614,-5.8423,-5.8812,-5.8826,-5.8838,-5.9005,-5.9035,-5.9061,0,0,0,0,0,-5.831,-5.8453,-5.8408,-5.8425,-5.8495,-5.8577,-5.8585,-5.8531,-5.845,-5.8516,-5.8498,-5.8422,-5.8594,-5.8513,-5.8532,-5.8632,-5.8806,-5.8822,-5.8837,-5.8993,-5.9029,-5.906,0,0,0,0,0,0,-5.8471,-5.8451,-5.8401,-5.8546,-5.8565,-5.8552,-5.8633,-5.8571,-5.8613,-5.8596,-5.8527,-5.8529,-5.8659,-5.8657,-5.8567,-5.8801,-5.8686,-5.8706,-5.8798,-5.8832,-5.886,-5.8857,-5.8429,0,0,0,0,0,-5.8524,-5.8592,-5.8571,-5.8701,-5.8713,-5.8672,-5.8706,-5.8662,-5.8678,-5.8685,-5.8676,-5.8695,-5.8753,-5.8792,-5.8844,-5.9004,-5.9003,-5.9082,-5.911,-5.9133,-5.9151,-5.9235,-5.927,-5.8897,-5.8897,-5.8897,0,0,-5.8633,-5.863,-5.8678,-5.8734,-5.8742,-5.8814,-5.8679,-5.8762,-5.8814,-5.8698,-5.8808,-5.8802,-5.8818,-5.8958,-5.9019,-5.8961,-5.9254,-5.9153,-5.9172,-5.9177,-5.9255,-5.929,-5.9322,-5.8908,-5.8906,-5.8904,0,0,-5.8869,-5.8874,-5.8983,-5.8995,-5.901,-5.8982,-5.9008,-5.9005,-5.8997,-5.9106,-5.902,-5.9082,-5.9183,-5.9198,-5.9219,-5.9461,-5.9393,-5.948,-5.9625,-5.9708,-5.9738,-5.9763,-5.9849,-5.9881,-5.9499,-5.9499,-5.9499,0,-5.9003,-5.9108,-5.9047,-5.9135,-5.9162,-5.9059,-5.9169,-5.9183,-5.9216,-5.9236,-5.917,-5.9295,-5.9299,-5.9441,-5.95,-5.952,-5.9548,-5.9479,-5.9738,-5.9763,-5.9786,-5.9867,-5.99,-5.951,-5.9508,-5.9507,-5.9506,0,-5.9271,-5.9346,-5.9432,-5.9465,-5.9501,-5.96,-5.9554,-5.9599,-5.9552,-5.9532,-5.9644,-5.9645,-5.9695,-5.9726,-5.9682,-5.9861,-5.9824,-5.975,-5.9632,-5.9834,-5.9908,-5.9939,-5.9525,-5.9521,-5.9518,-5.9515,0,0,-5.9609,-5.9607,-5.9639,-5.9653,-5.9662,-5.9719,-5.9813,-5.9861,-5.9901,-5.9926,-6.0003,-6.0092,-6.0022,-6.0047,-6.0003,-6.0076,-6.0267,-5.9992,-5.9991,-6.0042,-6.0464,-6.052,-6.0557,-6.0222,-6.0227,-6.0232,-6.0462,0,-5.9839,-5.9999,-5.9947,-6.0109,-6.0176,-6.0081,-6.0162,-6.0177,-6.0161,-6.0216,-6.0197,-6.026,-6.0165,-6.0178,-6.0246,-6.0229,-6.035,-6.0212,-6.0292,-6.0296,-6.029,-6.0596,-6.0654,-6.0872,-6.0491,-6.0496,-6.05,0,-6.0128,-6.0165,-6.0334,-6.0332,-6.0358,-6.0433,-6.0473,-6.0527,-6.0542,-6.0524,-6.0552,-6.0493,-6.0585,-6.0468,-6.0594,-6.0501,-6.0531,-6.0528,-6.0535,-6.0539,-6.0409,-6.0608,-6.094,-6.0973,-6.0545,-6.0542,-6.0539,0,-6.0357,-6.0449,-6.0561,-6.0576,-6.0576,-6.0631,-6.0634,-6.0642,-6.0675,-6.071,-6.073,-6.0777,-6.0802,-6.0839,-6.0795,-6.0714,-6.0927,-6.0807,-6.0915,-6.0916,-6.0963,-6.0961,-6.1304,-6.0985,-6.0984,-6.0984,-6.0983,0,-6.0618,-6.0725,-6.0664,-6.0733,-6.085,-6.079,-6.0907,-6.0899,-6.0908,-6.0974,-6.0894,-6.0958,-6.0895,-6.0953,-6.0919,-6.1028,-6.104,-6.1029,-6.1018,-6.1035,-6.1037,-6.1053,-6.1036,-6.0992,-6.099,-6.0989,-6.0987,0,-6.0893,-6.0856,-6.0972,-6.0963,-6.0963,-6.105,-6.1042,-6.1106,-6.1083,-6.1168,-6.1184,-6.115,-6.1214,-6.1173,-6.1239,-6.1215,-6.1358,-6.1327,-6.1353,-6.1344,-6.1454,-6.1444,-6.1819,-6.1865,-6.1518,-6.1521,-6.1524,0,-6.1061,-6.1141,-6.1141,-6.1179,-6.1187,-6.1251,-6.1283,-6.1227,-6.1265,-6.1288,-6.1349,-6.1406,-6.1449,-6.1556,-6.1537,-6.1586,-6.1555,-6.1684,-6.1562,-6.1577,-6.1556,-6.1551,-6.1559,-6.1708,-6.1712,-6.1715,-6.1718,0,-6.1365,-6.1343,-6.1393,-6.1438,-6.1479,-6.1511,-6.1537,-6.1573,-6.1517,-6.1563,-6.1627,-6.1661,-6.1727,-6.1785,-6.1827,-6.1829,-6.1765,-6.1757,-6.1784,-6.1802,-6.1813,-6.1807,-6.1418,-6.1748,-6.1745,-6.1743,-6.1741,-6.174,-6.1591,-6.1657,-6.1667,-6.1726,-6.1739,-6.1765,-6.1824,-6.181,-6.1862,-6.1912,-6.1876,-6.1953,-6.1965,-6.2014,-6.2025,-6.2084,-6.2032,-6.2072,-6.2082,-6.2093,-6.2107,-6.1805,-6.2092,-6.2091,-6.209,-6.2089,-6.2089,0,-6.1889,-6.1891,-6.1945,-6.1984,-6.203,-6.1966,-6.1991,-6.2034,-6.2102,-6.2119,-6.2163,-6.2237,-6.2293,-6.2279,-6.2329,-6.2379,-6.235,-6.2394,-6.2389,-6.239,-6.2152,-6.2122,-6.2416,-6.2416,-6.2416,-6.2416,-6.2415,-6.2415,-6.2049,-6.2158,-6.2137,-6.2252,-6.2253,-6.2327,-6.2347,-6.237,-6.2384,-6.247,-6.2516,-6.2506,-6.2511,-6.256,-6.2609,-6.2603,-6.2625,-6.2679,-6.2662,-6.244,-6.2407,-6.2376,-6.2348,-6.2684,-6.2685,-6.2895,-6.2897,-6.2899]},{"header":{"parameterUnit":"m.s-1","parameterCategory":1,"la1":30.2991,"la2":30.254,"lo1":-89.0895,"lo2":-89.0444,"dy":0.0017,"dx":0.0017,"nx":28,"ny":28,"refTime":"2024-02-03T09:00:00:Z","depth":0,"parameterNumber":3,"parameterNumberName":"V-component_of_WINDS"},"data":[0,0,0,0,0,0,0,0,0,0,0,0,0,0,0,0,0,0,0,0,0,0,0,0,0,0,0,0,0,0,0,0,0,0,0,0,0,0,0,0,0,0,0,0,0,0,0,0,0,0,0,0,0,0,0,0,0,0,0.9936,0.9937,0,1.0055,1.0056,1.0058,1.0125,1.0125,1.0126,1.0126,1.0248,1.0251,1.0254,0,0,0,0,0,0,0,0,0,0,0,0,0,0.9767,0.9769,0.9935,0.9937,0.9938,1.0055,1.0056,1.0058,1.0125,1.0125,1.0126,1.0126,1.0247,1.0251,1.0254,0,0,0,0,0,0,0,0,0,0,0,0,0,0.9858,0.977,0.9935,0.9986,0.9992,1.0054,1.0057,1.0059,1.0125,1.0125,1.0126,1.0126,1.0246,1.025,1.0255,1.0276,0,0,1.0269,1.0271,0,0,0,0,0,0,0,0,0.9853,0.9864,0.9977,0.9983,0.9989,1.0076,1.0042,1.0131,1.0125,1.0074,1.0126,1.0126,1.019,1.0199,1.0221,1.0282,1.0287,1.0269,1.0272,1.0274,1.0275,0,0,0,0,0,0,0,0.9847,0.986,0.9983,0.9979,0.9986,1.0003,1.0017,1.0059,1.0129,1.0079,1.0084,1.0097,1.0194,1.0217,1.0224,1.0289,1.0269,1.0273,1.0276,1.0278,1.0375,1.0375,0,0,0,0,0,0,0.9832,0.9854,0.9979,0.9986,0.9921,1.0006,1.0021,1.0047,1.0129,1.0141,1.0097,1.01,1.0209,1.0219,1.0229,1.0261,1.0274,1.0278,1.0281,1.0376,1.0375,1.0375,0,0,0,0,0,0,0.9828,0.9843,0.9974,0.9922,0.994,1.0009,1.0038,1.005,1.0073,1.0142,1.0155,1.0107,1.0209,1.0223,1.0264,1.0266,1.028,1.0284,1.0376,1.0376,1.0375,1.0324,0,0,0,0,0,0,0.9823,0.9841,0.9849,0.9921,0.9942,1.0007,1.0038,1.0052,1.008,1.0086,1.0156,1.0168,1.0211,1.0257,1.0269,1.0273,1.0288,1.0376,1.0376,1.0375,1.0326,1.0322,1.0319,0,0,0,0,0,0.9817,0.9829,0.9849,0.9864,0.9954,1.0007,1.0019,1.0068,1.008,1.009,1.0135,1.0165,1.0264,1.0261,1.0275,1.028,1.0376,1.0376,1.0375,1.0328,1.0323,1.0319,0,0,0,0,0,0,0.9755,0.984,0.9863,0.9899,0.9945,1.0018,1.0032,1.0062,1.0105,1.0108,1.0168,1.0183,1.022,1.0254,1.0249,1.0306,1.0323,1.0326,1.0282,1.0278,1.0275,1.0266,1.0292,0,0,0,0,0,0.9746,0.9782,0.9854,0.9879,0.9901,0.9962,0.9987,1.0021,1.0071,1.0091,1.0139,1.0187,1.0229,1.0256,1.0298,1.0331,1.0348,1.0342,1.0338,1.0335,1.0336,1.0358,1.0357,1.0374,1.0374,1.0374,0,0,0.9727,0.9778,0.9796,0.9868,0.9908,0.9944,0.9978,1.0014,1.0042,1.0097,1.014,1.0177,1.0234,1.0272,1.0291,1.0302,1.0335,1.0334,1.0331,1.0335,1.0358,1.0356,1.0355,1.0374,1.0374,1.0374,0,0,0.9711,0.9753,0.9779,0.9819,0.9879,0.992,0.9926,0.9995,1.0022,1.0066,1.0108,1.0142,1.0213,1.0253,1.0282,1.0283,1.0313,1.0295,1.0277,1.0298,1.0296,1.0296,1.0297,1.0297,1.0296,1.0296,1.0296,0,0.968,0.9736,0.9789,0.9824,0.9854,0.9906,0.9934,0.997,1.004,1.0061,1.0072,1.0163,1.0205,1.0254,1.0254,1.0276,1.0286,1.0288,1.0292,1.0292,1.0292,1.0294,1.0295,1.0294,1.0294,1.0294,1.0295,0,0.9696,0.9734,0.9748,0.9816,0.9849,0.9879,0.9937,0.9964,0.9995,1.0035,1.008,1.0133,1.0188,1.0202,1.0233,1.0256,1.0261,1.0281,1.03,1.0287,1.029,1.0292,1.029,1.0291,1.0292,1.0293,0,0,0.9644,0.9742,0.9746,0.9779,0.985,0.9881,0.9914,0.9969,0.9991,1.0038,1.0069,1.0128,1.0148,1.0181,1.0217,1.0235,1.0235,1.0254,1.0256,1.025,1.0265,1.025,1.025,1.0255,1.0256,1.0256,1.0261,0,0.964,0.9703,0.9752,0.9797,0.9834,0.9885,0.9914,0.9961,1.0,1.0037,1.008,1.0122,1.0144,1.0165,1.0185,1.023,1.0239,1.0231,1.0285,1.0286,1.027,1.0252,1.0236,1.0238,1.0263,1.0263,1.0263,0,0.9643,0.969,0.9738,0.9807,0.9825,0.985,0.9905,0.994,0.9995,1.0022,1.0059,1.0097,1.0136,1.0151,1.0206,1.0199,1.0224,1.025,1.0252,1.0259,1.0274,1.026,1.024,1.0241,1.0265,1.0265,1.0265,0,0.9602,0.9677,0.9717,0.9742,0.9823,0.9841,0.9875,0.993,0.996,1.0008,1.0028,1.0079,1.0108,1.0147,1.0197,1.0203,1.0248,1.0266,1.0272,1.0271,1.028,1.0279,1.0264,1.0294,1.0294,1.0294,1.0294,0,0.9593,0.9621,0.97,0.9724,0.9758,0.9814,0.9846,0.9885,0.9934,0.9967,1.0013,1.0044,1.0108,1.0147,1.0186,1.0227,1.0239,1.0263,1.0273,1.0259,1.0256,1.0277,1.0279,1.0294,1.0294,1.0294,1.0294,0,0.9553,0.9607,0.9654,0.9727,0.9746,0.9767,0.9831,0.9856,0.9898,0.994,0.9953,1.0018,1.0065,1.012,1.0185,1.0212,1.025,1.0265,1.0232,1.0238,1.0241,1.0241,1.0241,1.0244,1.0269,1.0269,1.0269,0,0.9544,0.9567,0.9643,0.9669,0.9703,0.9743,0.9775,0.9831,0.9862,0.9927,0.9946,0.9997,1.0041,1.0115,1.0169,1.0219,1.0236,1.0233,1.0244,1.023,1.0238,1.0236,1.024,1.023,1.0229,1.0229,1.0228,0,0.9523,0.9549,0.9592,0.9645,0.9681,0.9725,0.9771,0.979,0.9856,0.9888,0.9938,0.9972,1.004,1.0091,1.0148,1.0184,1.0218,1.0224,1.0229,1.0215,1.0196,1.0208,1.0224,1.0224,1.0225,1.0225,1.0225,1.0225,0.95,0.9523,0.9581,0.9628,0.9669,0.9711,0.974,0.9785,0.9828,0.9887,0.9918,0.9968,1.0024,1.0105,1.014,1.018,1.0191,1.0197,1.0199,1.0199,1.0196,1.0188,1.0191,1.0191,1.0191,1.0191,1.0191,0,0.9482,0.9522,0.9564,0.9628,0.9665,0.9694,0.9747,0.9776,0.9819,0.9869,0.9912,0.997,1.002,1.0077,1.0131,1.0152,1.0169,1.0165,1.0164,1.0172,1.0183,1.0174,1.015,1.015,1.015,1.015,1.015,1.015,0.9477,0.9519,0.9552,0.9615,0.9655,0.9704,0.9732,0.9772,0.9812,0.9875,0.9917,0.9954,1.0008,1.0066,1.0113,1.0129,1.0147,1.0139,1.0159,1.0168,1.0171,1.0175,1.0167,1.0142,1.0142,1.0146,1.0146,1.0146]}]]